Weather History for Tlemcen, Algeria

Change the Weather History Date:

Thursday, September 26, 2013

  Actual Average (GMFO) Record (GMFO)
Temperature  
Mean Temperature 77 °F -  
Max Temperature 94 °F 81 °F 100 °F (2013)
Min Temperature 60 °F 57 °F 50 °F (1996)
Cooling Degree Days 12    
Growing Degree Days 27 (Base 50)    
Moisture  
Dew Point 65 °F    
Average Humidity 78    
Maximum Humidity 100    
Minimum Humidity 21    
Precipitation  
Precipitation 0.00 in - - ()
Sea Level Pressure  
Sea Level Pressure 29.93 in    
Wind  
Wind Speed 3 mph ()    
Max Wind Speed 17 mph    
Max Gust Speed -    
Visibility 4.3 miles    
Events Fog    
Averages and records for this station are not official NWS values.
T = Trace of Precipitation, MM = Missing Value Source: Averaged Metar Reports

Daily Weather History Graph

Daily Weather History Graph

Search for Another Location

Airport:

Trip Planner

Search our weather history database for the weather conditions in past years. The results will help you decide how hot, cold, wet, or windy it might be!

Date:

Astronomy

Sep. 26, 2013 Rise Set
Actual Time 6:56 AM CET 6:56 PM CET
Civil Twilight 6:31 AM CET 7:22 PM CET
Nautical Twilight 6:02 AM CET 7:51 PM CET
Astronomical Twilight 5:32 AM CET 8:21 PM CET
Moon 11:53 PM CET (9/26) 1:26 PM CET (9/26)
Length of Visible Light 12h 50m
Length of Day
12h 00m
Waning Gibbous, 57% of the Moon is Illuminated
Sep 26
Waning Gibbous
Sep 27
Last Quarter
Oct 5
New
Oct 12
First Quarter
Oct 19
Full

Hourly Weather History & Observations

Time (CET) Temp. Heat Index Dew Point Humidity Pressure Visibility Wind Dir Wind Speed Gust Speed Precip Events Conditions
12:00 AM 68.0 °F - 64.4 °F 88% 29.95 in 6.2 mi Calm Calm - N/A   Partly Cloudy
12:30 AM 68.0 °F - 64.4 °F 88% 29.95 in 6.2 mi Calm Calm - N/A   Partly Cloudy
1:00 AM 67 °F - 64 °F 87% 29.93 in 12 mi Calm Calm - -   Scattered Clouds
1:00 AM 66.2 °F - 64.4 °F 94% 29.95 in 6.2 mi Calm Calm - N/A   Partly Cloudy
1:30 AM 66.2 °F - 64.4 °F 94% 29.95 in 6.2 mi Calm Calm - N/A   Partly Cloudy
2:00 AM 66.2 °F - 64.4 °F 94% 29.95 in 6.2 mi Calm Calm - N/A   Partly Cloudy
2:30 AM 66.2 °F - 64.4 °F 94% 29.95 in 6.2 mi Calm Calm - N/A   Partly Cloudy
3:00 AM 64.4 °F - 62.6 °F 94% 29.95 in 5.0 mi Calm Calm - N/A   Scattered Clouds
3:30 AM 64.4 °F - 62.6 °F 94% 29.95 in 5.0 mi Calm Calm - N/A   Scattered Clouds
4:00 AM 64 °F - 62 °F 92% 29.95 in 5 mi Calm Calm - -   Partly Cloudy
4:00 AM 64.4 °F - 62.6 °F 94% 29.95 in 5.0 mi Calm Calm - N/A   Scattered Clouds
4:30 AM 64.4 °F - 62.6 °F 94% 29.95 in 5.0 mi Calm Calm - N/A   Scattered Clouds
5:00 AM 62.6 °F - 60.8 °F 94% 29.95 in 3.7 mi Calm Calm - N/A   Scattered Clouds
5:30 AM 62.6 °F - 60.8 °F 94% 29.95 in 3.7 mi Calm Calm - N/A   Scattered Clouds
6:00 AM 62.6 °F - 60.8 °F 94% 29.95 in 3.7 mi Calm Calm - N/A   Scattered Clouds
6:30 AM 62.6 °F - 60.8 °F 94% 29.95 in 2.5 mi Calm Calm - N/A   Scattered Clouds
7:00 AM 61 °F - 60 °F 95% 29.96 in 2 mi Calm Calm - -   Mist
7:00 AM 60.8 °F - 60.8 °F 100% 29.95 in 2.5 mi Calm Calm - N/A   Scattered Clouds
7:30 AM 60.8 °F - 60.8 °F 100% 29.95 in 0.5 mi Calm Calm - N/A Fog Fog
8:00 AM 62.6 °F - 62.6 °F 100% 29.95 in 0.5 mi Calm Calm - N/A Fog Fog
8:30 AM 64.4 °F - 64.4 °F 100% 29.98 in 0.1 mi Calm Calm - N/A Fog Fog
9:00 AM 66.2 °F - 66.2 °F 100% 29.98 in 1.2 mi Calm Calm - N/A   Scattered Clouds
9:30 AM 69.8 °F - 68.0 °F 94% 29.98 in 3.7 mi Calm Calm - N/A   Partly Cloudy
10:00 AM 73 °F - 66 °F 74% 29.95 in 5 mi ENE 3.5 mph - -   Partly Cloudy
10:00 AM 73.4 °F - 66.2 °F 78% 29.98 in 5.0 mi ENE 3.5 mph - N/A   Partly Cloudy
10:30 AM 77.0 °F - 64.4 °F 65% 29.98 in - North 3.5 mph - N/A   Clear
11:00 AM 80.6 °F 82.3 °F 64.4 °F 58% 29.98 in - North 3.5 mph - N/A   Clear
11:30 AM 86.0 °F 86.1 °F 60.8 °F 43% 29.98 in - Calm Calm - N/A   Clear
12:00 PM 87.8 °F 88.5 °F 62.6 °F 43% 29.95 in - North 6.9 mph - N/A   Clear
12:30 PM 89.6 °F 89.5 °F 60.8 °F 38% 29.92 in - North 6.9 mph - N/A   Clear
1:00 PM 93 °F - 58 °F 21% 29.86 in 6 mi Calm Calm - -   Clear
1:00 PM 93.2 °F 92.6 °F 59.0 °F 32% 29.92 in - Calm Calm - N/A   Clear
1:30 PM 93.2 °F 94.1 °F 62.6 °F 36% 29.92 in - North 9.2 mph - N/A   Clear
2:00 PM 91.4 °F 93.2 °F 64.4 °F 41% 29.89 in 5.0 mi North 10.4 mph - N/A   Scattered Clouds
2:30 PM 86.0 °F 88.2 °F 66.2 °F 51% 29.86 in 3.7 mi North 17.3 mph - N/A   Scattered Clouds
3:00 PM 84.2 °F 86.6 °F 66.2 °F 55% 29.86 in 3.7 mi North 13.8 mph - N/A   Mostly Cloudy
3:30 PM 82.4 °F 85.4 °F 68.0 °F 62% 29.86 in 3.7 mi North 13.8 mph - N/A   Mostly Cloudy
4:00 PM 81 °F - 67 °F 53% 29.83 in 4 mi North 15.0 mph - -   Scattered Clouds
4:00 PM 80.6 °F 82.7 °F 66.2 °F 61% 29.86 in 3.7 mi North 15.0 mph - N/A   Mostly Cloudy
4:30 PM 80.6 °F 83.2 °F 68.0 °F 65% 29.86 in 3.7 mi North 12.7 mph - N/A   Mostly Cloudy
5:00 PM 80.6 °F 83.2 °F 68.0 °F 65% 29.86 in 3.7 mi North 11.5 mph - N/A   Mostly Cloudy
5:30 PM 78.8 °F - 71.6 °F 78% 29.86 in 3.7 mi North 8.1 mph - N/A   Mostly Cloudy
6:00 PM 78.8 °F - 66.2 °F 65% 29.86 in 3.7 mi NNW 10.4 mph - N/A   Mostly Cloudy
6:30 PM 77.0 °F - 66.2 °F 69% 29.89 in 3.7 mi North 8.1 mph - N/A   Scattered Clouds
7:00 PM 75 °F - 66 °F 67% 29.88 in 4 mi NNW 9.2 mph - -   Scattered Clouds
7:00 PM 75.2 °F - 66.2 °F 73% 29.89 in 3.7 mi NNW 9.2 mph - N/A   Scattered Clouds
7:30 PM 73.4 °F - 68.0 °F 83% 29.92 in 3.7 mi North 8.1 mph - N/A   Scattered Clouds
8:00 PM 71.6 °F - 68.0 °F 88% 29.95 in 5.0 mi WNW 5.8 mph - N/A   Unknown
8:30 PM 71.6 °F - 68.0 °F 88% 29.95 in 5.0 mi WNW 5.8 mph - N/A   Unknown
9:00 PM 71.6 °F - 68.0 °F 88% 29.95 in - NW 3.5 mph - N/A   Clear
9:30 PM 71.6 °F - 68.0 °F 88% 29.95 in - North 3.5 mph - N/A   Clear
10:00 PM 70 °F - 67 °F 87% 29.94 in 6 mi North 2.3 mph - -  
10:00 PM 69.8 °F - 66.2 °F 88% 29.95 in - North 2.3 mph - N/A   Clear
10:30 PM 69.8 °F - 66.2 °F 88% 29.98 in - WNW 4.6 mph - N/A   Clear
11:00 PM 69.8 °F - 66.2 °F 88% 29.98 in - NW 4.6 mph - N/A   Clear
11:30 PM 69.8 °F - 68.0 °F 94% 29.98 in 5.0 mi NNW 3.5 mph - N/A   Partly Cloudy